Regional Weather Roundup
Issued by NWS

Home | Current Version | Previous Version | Text Only | Print | Product List | Glossary On
Versions: 1 2 3 4 5 6 7 8 9 10 11 12 13 14 15 16 17 18 19 20 21 22 23 24 25 26 27 28 29 30 31 32 33 34 35 36 37 38 39 40 41 42 43 44 45 46 47 48 49 50
000
ASUS44 KOUN 281710
RWROK

WEATHER ROUNDUP FOR OKLAHOMA
NATIONAL WEATHER SERVICE NORMAN OK
1200 PM CDT WED JUN 28 2017

NOTE: "FAIR" INDICATES FEW OR NO CLOUDS BELOW 12,000 FEET WITH NO
      SIGNIFICANT WEATHER AND/OR OBSTRUCTIONS TO VISIBILITY.

OKZ001>007-009>012-014-015-017-281800-
NORTHWEST OKLAHOMA AND THE PANHANDLE

CITY           SKY/WX    TMP DP  RH WIND       PRES   REMARKS
GAGE           SUNNY     90  63  40 S29G36    29.81F HX  91
GUYMON         SUNNY     87  55  33 W8        29.81S
ENID/WOODRING  MOSUNNY   91  64  40 S26       29.83  HX  93
$$

OKZ016-021>023-033>039-044-045-281800-
SOUTHWEST OKLAHOMA

CITY           SKY/WX    TMP DP  RH WIND       PRES   REMARKS
LAWTON/REGL    SUNNY     87  68  52 S15G24    29.88F HX  90
LAWTON/FT SILL SUNNY     86  71  61 S20G25    29.88F HX  91
FREDERICK      SUNNY     90  65  43 S17G24    29.84F HX  92
CLINTON        CLOUDY    88  63  43 S23G30    29.88S
HOBART         SUNNY     89  64  43 S16G28    29.88S HX  90
ALTUS AFB      SUNNY     88  64  44 S16G28    29.86F
$$

OKZ018>020-024>031-281800-
CENTRAL OKLAHOMA

CITY           SKY/WX    TMP DP  RH WIND       PRES   REMARKS
OKLAHOMA CITY  MOSUNNY   87  63  44 S20G25    29.90F
OKC/WILEY POST SUNNY     89  65  44 S20G31    29.89F HX  91
STILLWATER     MOSUNNY   89  65  44 S18G26    29.88F HX  91
GUTHRIE        SUNNY     89  66  46 S17G24    29.88F HX  91
$$

OKZ008-013-054>072-281800-
NORTHEAST OKLAHOMA

CITY           SKY/WX    TMP DP  RH WIND       PRES   REMARKS
TULSA          PTSUNNY   86  71  60 S16G26    29.88F HX  91
TULSA/JONES    MOSUNNY   88  67  49 S15G23    29.90F HX  91
PONCA CITY     CLOUDY    86  65  49 S14G25    29.85F
BARTLESVILLE   MOSUNNY   88  70  55 S12G25    29.88F HX  93
MUSKOGEE       PTSUNNY   83  71  67 S12       29.96F
$$

OKZ032-040>043-046>053-073>077-281800-
SOUTH CENTRAL/SOUTHEAST OKLAHOMA

CITY           SKY/WX    TMP DP  RH WIND       PRES   REMARKS
ARDMORE/DWNTWN MOSUNNY   84  64  51 SW9       29.93F
MCALESTER      CLOUDY    85  70  60 S9G18     29.96F
$$




USA.gov is the U.S. government's official web portal to all federal, state and local government web resources and services.